Newport News, VA

5:00 AM EDT on October 17, 2019 (GMT -0400)
Newport News-Williamsburg International

Weather History for KPHF - September, 2019

Change the Weather History Date:

Thursday, September 19, 2019

  Actual Average Record
Temperature  
Mean Temperature 64 °F -  
Max Temperature 72 °F 82 °F 97 °F (1952)
Min Temperature 55 °F 64 °F 52 °F (1956)
Degree Days  
Heating Degree Days 1    
Growing Degree Days 14 (Base 50)    
Moisture  
Dew Point 51 °F    
Average Humidity 61    
Maximum Humidity 89    
Minimum Humidity 49    
Precipitation  
Precipitation 0.00 in - - ()
Sea Level Pressure  
Sea Level Pressure 30.28 in    
Wind  
Wind Speed 6 mph ()    
Max Wind Speed 13 mph    
Max Gust Speed -    
Visibility 10.0 miles    
Events      
Averages and records for this station are not official NWS values.
T = Trace of Precipitation, MM = Missing Value Source: Averaged Metar Reports

Daily Weather History Graph

Daily Weather History Graph

Search for Another Location

Airport or City:

Astronomy

Sep. 19, 2019 Rise Set
Actual Time 6:51 AM EDT 7:07 PM EDT
Civil Twilight 6:25 AM EDT 7:33 PM EDT
Nautical Twilight 5:54 AM EDT 8:04 PM EDT
Astronomical Twilight 5:23 AM EDT 8:35 PM EDT
Moon 10:22 PM EDT (9/19) 11:45 AM EDT (9/19)
Length of Visible Light 13h 08m
Length of Day
12h 16m
Waning Gibbous, 74% of the Moon is Illuminated
Sep 19
Waning Gibbous
Sep 21
Last Quarter
Sep 28
New
Oct 5
First Quarter
Oct 13
Full

Hourly Weather History & Observations

Time (EDT) Temp. Dew Point Humidity Pressure Visibility Wind Dir Wind Speed Gust Speed Precip Events Conditions
12:54 AM 64.0 °F 52.0 °F 65% 30.22 in 10.0 mi NE 5.8 mph - N/A   Partly Cloudy
1:54 AM 64.9 °F 52.0 °F 63% 30.23 in 10.0 mi NE 6.9 mph - N/A   Scattered Clouds
2:54 AM 64.0 °F 48.9 °F 58% 30.22 in 10.0 mi NE 9.2 mph - N/A   Clear
3:54 AM 64.0 °F 51.1 °F 63% 30.22 in 10.0 mi ENE 8.1 mph - N/A   Partly Cloudy
5:54 AM 63.0 °F 48.9 °F 60% 30.25 in 10.0 mi NE 9.2 mph - N/A   Partly Cloudy
6:54 AM 63.0 °F 48.9 °F 60% 30.27 in 10.0 mi NE 6.9 mph - N/A   Scattered Clouds
7:54 AM 64.0 °F 51.1 °F 63% 30.27 in 10.0 mi NNE 5.8 mph - N/A   Partly Cloudy
9:54 AM 69.1 °F 50.0 °F 51% 30.29 in 10.0 mi ENE 12.7 mph - N/A   Mostly Cloudy
10:54 AM 68.0 °F 50.0 °F 52% 30.31 in 10.0 mi NE 8.1 mph - N/A   Overcast
11:54 AM 69.1 °F 50.0 °F 51% 30.32 in 10.0 mi NNE 11.5 mph - N/A   Overcast
12:54 PM 70.0 °F 50.0 °F 49% 30.31 in 10.0 mi Variable 6.9 mph - N/A   Overcast
1:54 PM 69.1 °F 50.0 °F 51% 30.31 in 10.0 mi NE 9.2 mph - N/A   Overcast
2:54 PM 71.1 °F 51.1 °F 49% 30.29 in 10.0 mi NE 12.7 mph - N/A   Mostly Cloudy
3:54 PM 71.1 °F 51.1 °F 49% 30.28 in 10.0 mi East 11.5 mph - N/A   Scattered Clouds
4:54 PM 70.0 °F 52.0 °F 53% 30.29 in 10.0 mi NNE 5.8 mph - N/A   Partly Cloudy
5:54 PM 69.1 °F 52.0 °F 54% 30.29 in 10.0 mi NNE 5.8 mph - N/A   Partly Cloudy
6:54 PM 66.0 °F 52.0 °F 60% 30.28 in 10.0 mi North 3.5 mph - N/A   Partly Cloudy
7:54 PM 61.0 °F 52.0 °F 72% 30.29 in 10.0 mi North 4.6 mph - N/A   Overcast
8:54 PM 63.0 °F 54.0 °F 72% 30.31 in 10.0 mi North 3.5 mph - N/A   Overcast
9:54 PM 62.1 °F 53.1 °F 72% 30.30 in 10.0 mi ESE 3.5 mph - N/A   Scattered Clouds
10:54 PM 57.0 °F 53.1 °F 87% 30.30 in 10.0 mi Calm Calm - N/A   Clear
11:54 PM 55.0 °F 52.0 °F 89% 30.29 in 10.0 mi Calm Calm - N/A   Clear